Flight Track Log - Related Links

Times and Time Zones

All times are in EDT time to prevent confusion due to time zone crossing. See the WIG1046 flight status page for this flight to view local times or setup timezone preferences in your user account.

Time Position Orientation Groundspeed Altitude Reporting Facility
EDT Latitude Longitude Course Direction KTS MPH feet Rate Location/Type
Sat 09:42:52 AM 45.0366 -68.7317 30° Northeast  Level FlightAware Approximate
Sat 09:43:52 AM 45.0829 -68.7085 75° East  Level FlightAware Approximate
Sat 09:44:52 AM 45.1302 -68.6893 182° South  Level FlightAware Approximate
Sat 09:45:33 AM 45.0861 -68.6914 21° North 187 215 8,800  Level Boston Center
Sat 09:48:33 AM 45.2417 -68.6075 25° Northeast 191 220 9,000 75 Climbing Boston Center
Sat 09:49:33 AM 45.2947 -68.5717 26° Northeast 196 226 9,100 50 Climbing Boston Center
Sat 09:50:33 AM 45.3456 -68.5358 22° Northeast 196 226 9,100  Level Boston Center
Sat 09:51:33 AM 45.3986 -68.5056 20° North 196 226 9,100  Level Boston Center
Sat 09:52:33 AM 45.4519 -68.4783 24° Northeast 201 231 9,100 -50 Level Boston Center
Sat 09:53:33 AM 45.5050 -68.4450 22° Northeast 206 237 9,000  Descending Boston Center
Sat 09:54:33 AM 45.5581 -68.4144 22° Northeast 206 237 9,100 50 Climbing Boston Center
Sat 09:55:33 AM 45.6111 -68.3842 22° Northeast 206 237 9,100  Level Boston Center
Sat 09:56:33 AM 45.6644 -68.3536 20° North 206 237 9,100  Level Boston Center
Sat 09:57:33 AM 45.7175 -68.3261 29° Northeast 206 237 9,100  Level Boston Center
Sat 09:58:33 AM 45.7764 -68.2800 20° North 211 243 9,100 -350 Level Boston Center
Sat 09:59:33 AM 45.8294 -68.2522 18° North 211 243 8,400 -850 Descending Boston Center
Sat 10:00:33 AM 45.8889 -68.2242 22° Northeast 211 243 7,400 -1,200 Descending Boston Center
Sat 10:01:33 AM 45.9481 -68.1900 30° Northeast 211 243 6,000 -1,300 Descending Boston Center
Sat 10:02:33 AM 46.0006 -68.1469 19° North 216 249 4,800 -850 Descending Boston Center
Sat 10:03:33 AM 46.0558 -68.1189 14° North 211 243 4,300 -250 Descending Boston Center
Sat 10:04:33 AM 46.1094 -68.1000 24° Northeast 204 235 4,300  Level Boston Center
Sat 10:05:33 AM 46.1583 -68.0692 27° Northeast 199 229 4,300 -350 Level Boston Center
Sat 10:06:33 AM 46.2089 -68.0322 25° Northeast 199 229 3,600 -500 Descending Boston Center
Sat 10:07:33 AM 46.2597 -67.9983 22° Northeast 194 223 3,300 -100 Descending Boston Center
Sat 10:08:33 AM 46.3128 -67.9669 25° Northeast 194 223 3,400  Climbing Boston Center
Sat 10:09:33 AM 46.3633 -67.9328 348° North 194 223 3,300  Descending Boston Center
Sat 10:10:33 AM 46.4161 -67.9497 346° North 183 211 3,400 50 Climbing Boston Center
Sat 10:11:33 AM 46.4689 -67.9694 347° North 183 211 3,400  Level Boston Center
Sat 10:12:33 AM 46.5197 -67.9867 343° North 183 211 3,400 -250 Level Boston Center
Sat 10:13:33 AM 46.5661 -68.0069 347° North 188 216 2,900 -650 Descending Boston Center
Sat 10:14:33 AM 46.6022 -68.0194 347° North 161 185 2,100 -800 Descending Boston Center

Login

Don't have an account? Register now (free) for customized features, flight alerts, and more!